User: anonymous   Login
Location: Eschertshofen
(49.3064°N, 11.5756°E)
Time: 03:33:49
(UTC+00:00)
Language:

Cosmos 372 Rocket - Orbit

View from above orbital plane
View from above orbital plane
View from above satellite
View from above satellite

Ground track
Ground track

The orbit data is extracted from the following two-line orbital elements,

1  4589U 70086B   20339.52713916  .00000133  00000-0  48858-4 0  9992
2  4589  74.0585 135.7408 0020256  29.0042 331.2235 14.41612262629765
Epoch (UTC): 04 December 2020 12:39:04
Eccentricity: 0.0020256
inclination: 74.0585°
perigee height: 739 km
apogee height: 767 km
right ascension of ascending node: 135.7408°
argument of perigee: 29.0042°
revolutions per day: 14.41612262
mean anomaly at epoch: 331.2235°
orbit number at epoch: 62976

The dashed part of the orbit path shows where the satellite is in the earth's shadow,  

DLR